sat.trackr.live / text

‹ back to catalog

ION SCV-017

NORAD 63230 · 2025-052W

PAYLOAD ACTIVE UNKNOWN

§ Identity

Operator
Country
IT
Launch date
2025-03-15
Launch site
AFWTR
Launch vehicle
Mass (kg)
RCS (m²)

External: N2YO · Heavens-Above · Gunter

§ Orbital elements

Epoch: 2026-09-22T22:19:27.475104Z

Period
94.21 min
Inclination
97.3765°
Eccentricity
0.0023289
Mean motion
15.28463847 rev/d
Perigee alt
464.4 km
Apogee alt
496.4 km
Semi-major
6,858.5 km
B*
1.1222e-4
RAAN
160.2371°
Arg perigee
65.7989°
Mean anomaly
294.5682°
Rev number
8,496

§ Raw data

ION SCV-0171 63230U 25052W   26265.93017911  .00003057  00000+0  11222-3 0  99952 63230  97.3765 160.2371 0023289  65.7989 294.5682 15.28463847 84962

JSON: /api/v1/satellites/63230 · /tle

For live sub-satellite position, see the globe view (requires WebGL).

§ Visibility from observer

Set your observer location to see the next 7 days of passes ≥ 10°. The values pass through the URL so the page stays shareable.

No JS? Fill the form by hand. The geolocation button needs JavaScript.

§ Radio — SatNOGS DB

ModeDescriptionDownlinkUplink
BPSK Mode S - Transmitter 2.276 GHz
FSK AX.100 Mode 5 Mode U - FSK1k2 AX.100 401.415 MHz

2 transmitters · refreshed weekly from db.satnogs.org